N1JOT Weather Reports


Display with metric or nautical units.
time (UTC)temp
F
wind
direction
speed
MPH
gust
MPH
rain 1hr
in
rain 24hr
in
rain mn
in
humidity
%
barometer
mb
20260509175059 57 0 0.0 3.0 0.00 0.04 0.04 77 1013.0
20260509174603 57 0 0.0 5.0 0.00 0.04 0.04 78 1012.9
20260509174058 57 0 2.0 5.0 0.00 0.04 0.04 77 1013.1
20260509173600 57 140 1.0 3.0 0.00 0.04 0.04 77 1013.8
20260509173108 57 159 0.0 7.0 0.00 0.04 0.04 77 1013.9
20260509172558 57 194 0.0 7.0 0.00 0.04 0.04 75 1013.9
20260509172057 57 0 0.0 4.0 0.00 0.04 0.04 74 1014.0
20260509171627 57 157 1.0 7.0 0.00 0.04 0.04 72 1013.8
20260509171059 58 215 1.0 7.0 0.00 0.04 0.04 71 1013.9
20260509170600 58 238 1.0 5.0 0.00 0.04 0.04 70 1013.9
20260509170057 59 196 1.0 9.0 0.00 0.04 0.04 70 1013.8
20260509165559 59 0 1.0 9.0 0.00 0.04 0.04 69 1013.6
20260509165057 59 185 2.0 9.0 0.00 0.04 0.04 69 1013.6
20260509164557 59 184 1.0 7.0 0.00 0.04 0.04 68 1013.5
20260509164059 60 181 1.0 6.0 0.00 0.04 0.04 68 1013.5
20260509163600 60 199 1.0 7.0 0.00 0.04 0.04 68 1013.6
20260509163124 60 113 1.0 7.0 0.00 0.04 0.04 69 1013.7
20260509162559 60 0 1.0 5.0 0.00 0.04 0.04 68 1013.6
20260509162101 60 161 1.0 5.0 0.00 0.04 0.04 67 1013.5
20260509161600 60 180 1.0 7.0 0.00 0.04 0.04 68 1013.6
20260509161103 60 202 0.0 7.0 0.00 0.04 0.04 66 1013.7
20260509160602 61 149 3.0 7.0 0.00 0.04 0.04 68 1013.8
20260509155604 60 118 3.0 8.0 0.00 0.04 0.04 69 1013.9
20260509155059 60 109 1.0 5.0 0.00 0.04 0.04 70 1014.0
20260509154559 61 59 1.0 5.0 0.00 0.04 0.04 70 1014.1
20260509154100 61 0 1.0 6.0 0.00 0.04 0.04 69 1014.1
20260509153603 61 0 1.0 7.0 0.00 0.04 0.04 69 1014.1
20260509153101 61 88 2.0 9.0 0.00 0.04 0.04 72 1014.1
20260509152559 60 132 4.0 9.0 0.00 0.04 0.04 72 1014.1
20260509152100 59 90 2.0 8.0 0.00 0.04 0.04 73 1014.2
20260509151605 59 109 1.0 6.0 0.00 0.04 0.04 74 1014.2
20260509151100 59 205 1.0 7.0 0.00 0.04 0.04 75 1014.2
20260509150601 58 90 2.0 8.0 0.00 0.04 0.04 76 1014.4
20260509150126 58 125 3.0 8.0 0.00 0.04 0.04 77 1014.5
20260509145600 57 115 3.0 9.0 0.00 0.04 0.04 77 1014.4
20260509145102 56 110 4.0 9.0 0.00 0.04 0.04 77 1014.3
20260509144708 56 118 3.0 8.0 0.00 0.04 0.04 79 1014.2
20260509144102 56 96 3.0 8.0 0.00 0.04 0.04 80 1014.2
20260509143600 56 119 2.0 6.0 0.00 0.04 0.04 82 1014.2
20260509143059 56 0 2.0 7.0 0.00 0.04 0.04 83 1014.4
20260509142604 55 85 3.0 7.0 0.00 0.04 0.04 83 1014.4
20260509142101 55 111 2.0 8.0 0.00 0.04 0.04 84 1014.6
20260509141601 54 61 1.0 8.0 0.00 0.04 0.04 85 1014.7
20260509141100 54 107 2.0 6.0 0.00 0.04 0.04 86 1014.8
20260509140600 53 103 1.0 4.0 0.00 0.04 0.04 86 1015.0
20260509135602 52 102 2.0 5.0 0.00 0.04 0.04 88 1014.8
20260509135101 52 89 2.0 5.0 0.00 0.04 0.04 87 1014.9
20260509134600 51 101 2.0 4.0 0.00 0.04 0.04 88 1015.0
20260509134100 51 0 1.0 3.0 0.00 0.04 0.04 89 1015.2
20260509133603 51 96 1.0 4.0 0.00 0.04 0.04 89 1015.4
20260509133100 51 89 1.0 4.0 0.00 0.04 0.04 89 1015.3
20260509132601 50 84 2.0 4.0 0.00 0.04 0.04 90 1015.4
20260509132059 50 106 0.0 3.0 0.00 0.04 0.04 90 1015.4
20260509131559 50 0 0.0 4.0 0.00 0.04 0.04 91 1015.3
20260509131057 49 62 1.0 4.0 0.00 0.04 0.04 92 1015.3
20260509130559 48 63 1.0 3.0 0.01 0.04 0.04 92 1015.3
20260509130107 48 77 1.0 3.0 0.01 0.04 0.04 92 1015.4
20260509125600 48 75 1.0 3.0 0.01 0.04 0.04 92 1015.4
20260509125059 47 76 1.0 3.0 0.01 0.04 0.04 92 1015.4
20260509124612 47 67 1.0 3.0 0.01 0.04 0.04 92 1015.5
20260509124059 47 0 0.0 0.0 0.01 0.04 0.04 92 1015.6
20260509123559 47 0 0.0 0.0 0.01 0.04 0.04 92 1015.5
20260509123102 46 0 0.0 0.0 0.01 0.04 0.04 92 1015.4
20260509122600 46 0 0.0 2.0 0.02 0.04 0.04 92 1015.3
20260509122100 46 0 0.0 2.0 0.02 0.04 0.04 92 1015.2
20260509121559 46 0 0.0 3.0 0.03 0.04 0.04 92 1015.1
20260509121058 45 0 0.0 3.0 0.03 0.04 0.04 92 1015.2
20260509120558 45 75 1.0 3.0 0.02 0.03 0.03 92 1015.3
20260509120107 45 0 0.0 2.0 0.03 0.03 0.03 92 1015.3
20260509115559 44 0 0.0 0.0 0.03 0.03 0.03 92 1015.3
20260509115059 44 0 0.0 0.0 0.03 0.03 0.03 91 1015.4
20260509114604 44 0 0.0 0.0 0.03 0.03 0.03 91 1015.5
20260509114100 43 0 0.0 0.0 0.03 0.03 0.03 91 1015.6
20260509113600 43 0 0.0 0.0 0.03 0.03 0.03 91 1015.6
20260509113058 43 0 0.0 0.0 0.03 0.03 0.03 91 1015.8
20260509112559 43 0 0.0 0.0 0.02 0.02 0.02 90 1016.0
20260509112101 43 0 0.0 0.0 0.02 0.02 0.02 90 1016.0
20260509111559 42 0 0.0 0.0 0.01 0.01 0.01 90 1015.8
20260509111059 42 0 0.0 0.0 0.01 0.01 0.01 90 1015.9
20260509110602 42 0 0.0 0.0 0.01 0.01 0.01 89 1015.9
20260509105600 42 0 0.0 0.0 0.00 0.00 0.00 89 1015.7
20260509105100 42 0 0.0 0.0 0.00 0.00 0.00 89 1015.7
20260509104600 42 0 0.0 0.0 0.00 0.00 0.00 88 1015.5
20260509104100 42 0 0.0 0.0 0.00 0.00 0.00 88 1015.5
20260509103557 42 0 0.0 0.0 0.00 0.00 0.00 88 1015.5
20260509103057 42 0 0.0 0.0 0.00 0.00 0.00 87 1015.5
20260509102559 42 0 0.0 0.0 0.00 0.00 0.00 88 1015.4
20260509102102 42 0 0.0 0.0 0.00 0.00 0.00 88 1015.3
20260509101558 43 0 0.0 0.0 0.00 0.00 0.00 88 1015.3
20260509101203 42 0 0.0 0.0 0.00 0.00 0.00 88 1015.1
20260509100600 42 0 0.0 0.0 0.00 0.00 0.00 89 1014.9
20260509100105 42 0 0.0 0.0 0.00 0.00 0.00 89 1014.7
20260509095601 42 0 0.0 0.0 0.00 0.00 0.00 89 1014.6
20260509095059 42 0 0.0 0.0 0.00 0.00 0.00 89 1014.4
20260509094559 41 0 0.0 0.0 0.00 0.00 0.00 89 1014.4
20260509094100 41 0 0.0 0.0 0.00 0.00 0.00 89 1014.4
20260509093601 41 0 0.0 0.0 0.00 0.00 0.00 89 1014.3
20260509093101 41 0 0.0 0.0 0.00 0.00 0.00 89 1014.3
20260509092603 41 0 0.0 0.0 0.00 0.00 0.00 89 1014.4
20260509092100 40 0 0.0 0.0 0.00 0.00 0.00 89 1014.5
20260509091600 40 0 0.0 0.0 0.00 0.00 0.00 88 1014.4
20260509091102 39 0 0.0 0.0 0.00 0.00 0.00 88 1014.4
20260509090601 39 0 0.0 0.0 0.00 0.00 0.00 88 1014.5
20260509090108 39 0 0.0 0.0 0.00 0.00 0.00 88 1014.4
20260509085600 39 0 0.0 0.0 0.00 0.00 0.00 88 1014.3
20260509085101 39 0 0.0 0.0 0.00 0.00 0.00 87 1014.2
20260509084603 39 0 0.0 0.0 0.00 0.00 0.00 87 1014.1
20260509084100 39 0 0.0 0.0 0.00 0.00 0.00 87 1014.0
20260509083600 39 0 0.0 0.0 0.00 0.00 0.00 87 1014.1
20260509083102 38 0 0.0 0.0 0.00 0.00 0.00 87 1014.2
20260509082600 38 0 0.0 0.0 0.00 0.00 0.00 87 1014.3
20260509082100 38 0 0.0 0.0 0.00 0.00 0.00 86 1014.4
20260509081600 38 0 0.0 0.0 0.00 0.00 0.00 86 1014.5
20260509081100 38 0 0.0 0.0 0.00 0.00 0.00 86 1014.6
20260509080604 38 0 0.0 0.0 0.00 0.00 0.00 86 1014.6
20260509080101 38 0 0.0 0.0 0.00 0.00 0.00 86 1014.6
20260509075600 38 0 0.0 0.0 0.00 0.00 0.00 86 1014.6
20260509075101 38 0 0.0 0.0 0.00 0.00 0.00 86 1014.6
20260509074608 38 0 0.0 0.0 0.00 0.00 0.00 86 1014.6
20260509074101 38 0 0.0 0.0 0.00 0.00 0.00 86 1014.7
20260509073601 38 0 0.0 0.0 0.00 0.00 0.00 86 1014.8
20260509073100 39 0 0.0 0.0 0.00 0.00 0.00 85 1014.7
20260509072600 39 0 0.0 0.0 0.00 0.00 0.00 85 1014.7
20260509072100 39 0 0.0 0.0 0.00 0.00 0.00 85 1014.7
20260509071624 39 0 0.0 0.0 0.00 0.00 0.00 85 1014.7
20260509071102 39 0 0.0 0.0 0.00 0.00 0.00 85 1014.7
20260509070603 39 0 0.0 0.0 0.00 0.00 0.00 85 1014.8
20260509065642 39 0 0.0 0.0 0.00 0.00 0.00 84 1014.9
20260509065101 39 0 0.0 0.0 0.00 0.00 0.00 84 1014.7
20260509064606 39 0 0.0 0.0 0.00 0.00 0.00 84 1014.7
20260509064058 39 0 0.0 0.0 0.00 0.00 0.00 84 1014.6
20260509063600 39 0 0.0 0.0 0.00 0.00 0.00 84 1014.6
20260509063059 39 0 0.0 0.0 0.00 0.00 0.00 84 1014.6
20260509062559 39 0 0.0 0.0 0.00 0.00 0.00 84 1014.6
20260509062059 39 0 0.0 0.0 0.00 0.00 0.00 84 1014.6
20260509061602 39 0 0.0 0.0 0.00 0.00 0.00 84 1014.6
20260509061101 39 0 0.0 0.0 0.00 0.00 0.00 84 1014.6
20260509060557 39 0 0.0 0.0 0.00 0.00 0.00 83 1014.5
20260509060106 39 0 0.0 0.0 0.00 0.00 0.00 83 1014.5
20260509055600 39 0 0.0 0.0 0.00 0.00 0.00 83 1014.6
20260509055103 39 0 0.0 0.0 0.00 0.00 0.00 83 1014.6
20260509054613 39 0 0.0 0.0 0.00 0.00 0.00 82 1014.6
20260509054059 39 0 0.0 0.0 0.00 0.00 0.00 82 1014.6
20260509053557 40 0 0.0 0.0 0.00 0.00 0.00 82 1014.7
20260509053105 40 0 0.0 0.0 0.00 0.00 0.00 81 1014.5
20260509052600 40 0 0.0 0.0 0.00 0.00 0.00 82 1014.6
20260509052059 40 0 0.0 0.0 0.00 0.00 0.00 81 1014.6
20260509051558 40 0 0.0 0.0 0.00 0.00 0.00 81 1014.5
20260509051101 40 0 0.0 0.0 0.00 0.00 0.00 81 1014.5
20260509050557 40 0 0.0 0.0 0.00 0.00 0.00 81 1014.4
20260509050101 40 0 0.0 0.0 0.00 0.00 0.00 81 1014.5
20260509045557 41 0 0.0 0.0 0.00 0.00 0.00 80 1014.6
20260509045100 41 0 0.0 0.0 0.00 0.00 0.00 80 1014.6
20260509044600 41 0 0.0 0.0 0.00 0.00 0.00 80 1014.5
20260509044100 41 0 0.0 0.0 0.00 0.00 0.00 79 1014.5
20260509043600 41 0 0.0 0.0 0.00 0.00 0.00 78 1014.6
20260509043110 42 0 0.0 0.0 0.00 0.00 0.00 78 1014.5
20260509042558 42 0 0.0 0.0 0.00 0.00 0.00 78 1014.4
20260509042100 42 0 0.0 0.0 0.00 0.00 0.00 78 1014.5
20260509041557 42 0 0.0 0.0 0.00 0.00 0.00 77 1014.3
20260509041057 42 0 0.0 0.0 0.00 0.00 0.00 77 1014.3
20260509040557 42 0 0.0 0.0 0.00 0.00 0.00 77 1014.3
20260509040059 43 0 0.0 0.0 0.00 0.00 0.00 76 1014.1
20260509035559 43 0 0.0 0.0 0.00 0.00 0.00 76 1014.2
20260509035058 43 0 0.0 0.0 0.00 0.00 0.00 75 1014.2
20260509034603 43 0 0.0 0.0 0.00 0.00 0.00 75 1014.2
20260509034057 43 0 0.0 0.0 0.00 0.00 0.00 75 1014.0
20260509033557 44 0 0.0 0.0 0.00 0.00 0.00 75 1014.0
20260509033058 44 0 0.0 0.0 0.00 0.00 0.00 72 1014.0
20260509032556 44 0 0.0 0.0 0.00 0.00 0.00 72 1014.1
20260509032059 44 0 0.0 0.0 0.00 0.00 0.00 72 1014.1
20260509031602 44 0 0.0 0.0 0.00 0.00 0.00 73 1014.2
20260509031100 44 0 0.0 0.0 0.00 0.00 0.00 74 1014.2
20260509030557 44 0 0.0 0.0 0.00 0.00 0.00 74 1014.2
20260509030057 44 0 0.0 0.0 0.00 0.00 0.00 74 1014.1
20260509025559 45 0 0.0 0.0 0.00 0.00 0.00 73 1014.1
20260509025059 45 0 0.0 0.0 0.00 0.00 0.00 72 1014.1
20260509024556 45 0 0.0 0.0 0.00 0.00 0.00 71 1014.0
20260509024056 45 0 0.0 0.0 0.00 0.00 0.00 69 1014.0
20260509023557 46 0 0.0 0.0 0.00 0.00 0.00 69 1014.0
20260509023101 46 0 0.0 0.0 0.00 0.00 0.00 69 1013.9
20260509022557 46 0 0.0 0.0 0.00 0.00 0.00 69 1013.8
20260509022100 46 0 0.0 0.0 0.00 0.00 0.00 68 1013.7
20260509021557 46 0 0.0 0.0 0.00 0.00 0.00 67 1013.6
20260509021056 46 0 0.0 0.0 0.00 0.00 0.00 68 1013.6
20260509020559 46 0 0.0 0.0 0.00 0.00 0.00 69 1013.5
20260509020100 46 0 0.0 0.0 0.00 0.00 0.00 70 1013.5
20260509015557 47 0 0.0 0.0 0.00 0.00 0.00 69 1013.4
20260509015100 47 0 0.0 0.0 0.00 0.00 0.00 69 1013.3
20260509014559 47 0 0.0 0.0 0.00 0.00 0.00 69 1013.4
20260509014101 47 0 0.0 0.0 0.00 0.00 0.00 68 1013.3
20260509013556 48 0 0.0 0.0 0.00 0.00 0.00 66 1013.2
20260509013115 48 0 0.0 0.0 0.00 0.00 0.00 63 1013.2
20260509012600 48 0 0.0 0.0 0.00 0.00 0.00 63 1013.1
20260509012059 48 0 0.0 0.0 0.00 0.00 0.00 65 1013.1
20260509011559 49 0 0.0 1.0 0.00 0.00 0.00 61 1012.9
20260509011055 49 0 0.0 1.0 0.00 0.00 0.00 62 1012.8
20260509010557 49 0 0.0 2.0 0.00 0.00 0.00 59 1012.7
20260509010100 50 0 0.0 2.0 0.00 0.00 0.00 57 1012.6
20260509005600 50 0 0.0 2.0 0.00 0.00 0.00 57 1012.4
20260509005058 50 0 0.0 2.0 0.00 0.00 0.00 57 1012.4
20260509004600 50 0 1.0 2.0 0.00 0.00 0.00 57 1012.4
20260509004059 50 225 0.0 2.0 0.00 0.00 0.00 59 1012.3
20260509003600 50 0 1.0 3.0 0.00 0.00 0.00 57 1012.2
20260509003102 50 230 1.0 3.0 0.00 0.00 0.00 58 1012.0
20260509002558 51 230 1.0 3.0 0.00 0.00 0.00 55 1012.0
20260509002056 51 0 0.0 3.0 0.00 0.00 0.00 54 1011.8
20260509001600 51 227 0.0 3.0 0.00 0.00 0.00 54 1011.8
20260509001056 51 0 0.0 3.0 0.00 0.00 0.00 53 1011.7
20260509000559 52 214 0.0 2.0 0.00 0.00 0.00 55 1011.6
20260509000057 52 0 0.0 2.0 0.00 0.00 0.00 52 1011.4
20260508235600 53 0 0.0 3.0 0.00 0.00 0.00 51 1011.3
20260508235100 53 0 0.0 3.0 0.00 0.00 0.00 50 1011.2
20260508234559 53 221 0.0 5.0 0.00 0.00 0.00 50 1011.1
20260508234059 53 247 0.0 6.0 0.00 0.00 0.00 50 1011.0
20260508233600 54 217 1.0 6.0 0.00 0.00 0.00 47 1010.9
20260508233101 54 0 0.0 6.0 0.00 0.00 0.00 49 1010.9
20260508232556 55 230 2.0 7.0 0.00 0.00 0.00 46 1010.8
20260508232059 55 254 1.0 7.0 0.00 0.00 0.00 47 1010.7
20260508231606 55 239 3.0 7.0 0.00 0.00 0.00 46 1010.6
20260508231057 55 248 2.0 7.0 0.00 0.00 0.00 46 1010.6
20260508230601 55 269 1.0 7.0 0.00 0.00 0.00 45 1010.6
20260508225559 56 219 1.0 6.0 0.00 0.00 0.00 46 1010.5
20260508225104 56 238 2.0 6.0 0.00 0.00 0.00 46 1010.5
20260508224609 56 237 2.0 10.0 0.00 0.00 0.00 45 1010.5
20260508224100 56 294 3.0 10.0 0.00 0.00 0.00 45 1010.4
20260508223600 56 239 3.0 10.0 0.00 0.00 0.00 44 1010.4
20260508223100 57 268 2.0 6.0 0.00 0.00 0.00 45 1010.5
20260508222559 57 190 2.0 8.0 0.00 0.00 0.00 45 1010.4
20260508222059 57 248 3.0 8.0 0.00 0.00 0.00 45 1010.3
20260508221606 57 258 2.0 10.0 0.00 0.00 0.00 45 1010.2
20260508221057 57 5 4.0 10.0 0.00 0.00 0.00 45 1010.2
20260508220600 57 275 2.0 6.0 0.00 0.00 0.00 46 1010.3
20260508220104 57 0 1.0 7.0 0.00 0.00 0.00 45 1010.2
20260508215559 57 309 2.0 12.0 0.00 0.00 0.00 46 1010.3
20260508215059 57 157 2.0 12.0 0.00 0.00 0.00 46 1010.2
20260508214559 57 263 4.0 12.0 0.00 0.00 0.00 45 1010.2
20260508214059 57 279 3.0 9.0 0.00 0.00 0.00 44 1010.2
20260508213559 57 304 2.0 9.0 0.00 0.00 0.00 45 1010.1
20260508213116 57 303 3.0 9.0 0.00 0.00 0.00 45 1010.0
20260508212556 57 284 4.0 9.0 0.00 0.00 0.00 46 1010.1
20260508212100 57 265 3.0 9.0 0.00 0.00 0.00 45 1010.1
20260508211600 57 325 3.0 9.0 0.00 0.00 0.00 46 1010.1
20260508211058 57 263 4.0 14.0 0.00 0.00 0.00 44 1010.0
20260508210557 58 246 3.0 14.0 0.00 0.00 0.00 44 1010.0
20260508210059 57 193 4.0 13.0 0.00 0.00 0.00 44 1010.0
20260508205600 57 329 4.0 13.0 0.00 0.00 0.00 43 1010.0
20260508205057 58 267 6.0 13.0 0.00 0.00 0.00 42 1010.0
20260508204557 57 282 3.0 12.0 0.00 0.00 0.00 44 1009.9
20260508204059 57 255 5.0 12.0 0.00 0.00 0.00 42 1009.9
20260508203559 57 238 4.0 13.0 0.00 0.00 0.00 43 1009.9
20260508203115 58 221 6.0 17.0 0.00 0.00 0.00 42 1009.8
20260508202556 58 202 5.0 17.0 0.00 0.00 0.00 43 1009.6
20260508202057 58 276 7.0 17.0 0.00 0.00 0.00 41 1009.5
20260508201557 58 259 5.0 12.0 0.00 0.00 0.00 41 1009.5
20260508201100 58 248 4.0 11.0 0.00 0.00 0.00 40 1009.4
20260508200559 58 258 4.0 12.0 0.00 0.00 0.00 40 1009.4
20260508200100 59 261 4.0 12.0 0.00 0.00 0.00 38 1009.4
20260508195559 59 15 3.0 10.0 0.00 0.00 0.00 38 1009.3
20260508195059 60 240 4.0 14.0 0.00 0.00 0.00 39 1009.2
20260508194600 59 274 6.0 14.0 0.00 0.00 0.00 35 1009.1
20260508194104 59 277 4.0 11.0 0.00 0.00 0.00 35 1009.0
20260508193559 60 20 4.0 11.0 0.00 0.00 0.00 35 1008.9
20260508193132 60 259 2.0 11.0 0.00 0.00 0.00 37 1008.9
20260508192559 60 297 3.0 11.0 0.00 0.00 0.00 35 1008.8
20260508192100 60 177 1.0 11.0 0.00 0.00 0.00 38 1008.7
20260508191600 60 304 5.0 11.0 0.00 0.00 0.00 35 1008.8
20260508191059 60 238 4.0 12.0 0.00 0.00 0.00 35 1008.7
20260508190556 60 317 3.0 12.0 0.00 0.00 0.00 35 1008.7
20260508190105 61 321 4.0 12.0 0.00 0.00 0.00 35 1008.7
20260508185556 61 249 3.0 10.0 0.00 0.00 0.00 35 1008.8
20260508185056 60 241 3.0 8.0 0.00 0.00 0.00 35 1008.7
20260508184635 60 298 1.0 8.0 0.00 0.00 0.00 37 1008.8
20260508184059 60 223 3.0 12.0 0.00 0.00 0.00 37 1008.8
20260508183559 60 238 3.0 12.0 0.00 0.00 0.00 35 1008.8
20260508183114 60 324 3.0 10.0 0.00 0.00 0.00 35 1008.8
20260508182557 60 252 3.0 10.0 0.00 0.00 0.00 35 1008.8
20260508182056 60 240 2.0 11.0 0.00 0.00 0.00 35 1008.9
20260508181601 60 348 4.0 11.0 0.00 0.00 0.00 34 1008.9
20260508181056 61 238 3.0 12.0 0.00 0.00 0.00 34 1008.7
20260508180556 61 306 4.0 12.0 0.00 0.00 0.00 32 1008.8
20260508175559 61 252 4.0 10.0 0.00 0.00 0.00 32 1008.8